Weather History for KGEV - December, 1999

Change the Weather History Date:

Friday, December 3, 1999

  Actual Average Record
Temperature  
Mean Temperature 47 °F -  
Max Temperature 57 °F 48 °F 66 °F (1991)
Min Temperature 37 °F 26 °F 5 °F (1979)
Degree Days  
Heating Degree Days 18    
Moisture  
Dew Point 19 °F    
Average Humidity 34    
Maximum Humidity 57    
Minimum Humidity 21    
Precipitation  
Precipitation 0.00 in - - ()
Sea Level Pressure  
Sea Level Pressure 30.26 in    
Wind  
Wind Speed 1 mph (SE)    
Max Wind Speed 9 mph    
Max Gust Speed -    
Visibility 10 miles    
Events      
Averages and records for this station are not official NWS values.
T = Trace of Precipitation, MM = Missing Value Source: NWS Daily Summary

Daily Weather History Graph

Daily Weather History Graph

Search for Another Location

Airport or City:

Trip Planner

Search our weather history database for the weather conditions in past years. The results will help you decide how hot, cold, wet, or windy it might be!

Date:

Astronomy

Dec. 03, 1999 Rise Set
Actual Time 7:20 AM EST 5:10 PM EST
Civil Twilight 6:51 AM EST 5:38 PM EST
Nautical Twilight 6:20 AM EST 6:10 PM EST
Astronomical Twilight 5:48 AM EST 6:41 PM EST
Moon 3:10 AM EST 3:05 PM EST
Length of Visible Light 10h 46m
Length of Day
9h 49m
Waning Crescent, 16% of the Moon is Illuminated
Dec 3
Waning Crescent
Dec 7
New
Dec 15
First Quarter
Dec 22
Full
Dec 29
Last Quarter

Hourly Weather History & Observations

Time (EST) Temp. Windchill Dew Point Humidity Pressure Visibility Wind Dir Wind Speed Gust Speed Precip Events Conditions
12:03 AM 41.0 °F - 3.2 °F 21% 30.27 in 10.0 mi Calm Calm - N/A   Clear
12:23 AM 41.0 °F - 3.2 °F 21% 30.27 in 10.0 mi Calm Calm - N/A   Clear
12:43 AM 41.0 °F - 5.0 °F 23% 30.27 in 10.0 mi Calm Calm - N/A   Clear
1:03 AM 41.0 °F - 3.2 °F 21% 30.26 in 10.0 mi Calm Calm - N/A   Clear
1:23 AM 39.2 °F - 6.8 °F 26% 30.26 in 10.0 mi Calm Calm - N/A   Clear
1:43 AM 41.0 °F - 6.8 °F 24% 30.25 in 10.0 mi Calm Calm - N/A   Clear
2:03 AM 41.0 °F 39.0 °F 5.0 °F 23% 30.25 in 10.0 mi ESE 3.5 mph - N/A   Clear
2:23 AM 37.4 °F - 10.4 °F 33% 30.25 in 10.0 mi Calm Calm - N/A   Clear
2:43 AM 39.2 °F - 8.6 °F 28% 30.25 in 10.0 mi Calm Calm - N/A   Clear
3:03 AM 41.0 °F - 10.4 °F 29% 30.25 in 10.0 mi Calm Calm - N/A   Clear
3:23 AM 41.0 °F - 8.6 °F 26% 30.25 in 10.0 mi Calm Calm - N/A   Clear
3:43 AM 41.0 °F - 8.6 °F 26% 30.25 in 10.0 mi Calm Calm - N/A   Clear
4:03 AM 41.0 °F - 10.4 °F 29% 30.25 in 10.0 mi Calm Calm - N/A   Clear
4:23 AM 41.0 °F - 10.4 °F 29% 30.25 in 10.0 mi Calm Calm - N/A   Clear
4:43 AM 42.8 °F - 10.4 °F 27% 30.25 in 10.0 mi Calm Calm - N/A   Clear
5:03 AM 41.0 °F - 10.4 °F 29% 30.25 in 10.0 mi Calm Calm - N/A   Clear
5:23 AM 42.8 °F - 10.4 °F 27% 30.25 in 10.0 mi Calm Calm - N/A   Clear
5:43 AM 41.0 °F - 10.4 °F 29% 30.25 in 10.0 mi Calm Calm - N/A   Clear
6:03 AM 42.8 °F - 10.4 °F 27% 30.25 in 10.0 mi Calm Calm - N/A   Clear
6:23 AM 42.8 °F - 12.2 °F 29% 30.27 in 10.0 mi Calm Calm - N/A   Clear
6:43 AM 41.0 °F - 12.2 °F 31% 30.27 in 10.0 mi Calm Calm - N/A   Clear
7:03 AM 41.0 °F - 12.2 °F 31% 30.27 in 10.0 mi Calm Calm - N/A   Clear
7:23 AM 44.6 °F - 12.2 °F 27% 30.28 in 10.0 mi Calm Calm - N/A   Clear
7:43 AM 42.8 °F - 12.2 °F 29% 30.27 in 10.0 mi Calm Calm - N/A   Clear
8:03 AM 44.6 °F - 14.0 °F 29% 30.29 in 7.0 mi Calm Calm - N/A   Clear
8:23 AM 42.8 °F - 17.6 °F 36% 30.28 in 10.0 mi Calm Calm - N/A   Clear
8:43 AM 42.8 °F 41.1 °F 19.4 °F 39% 30.29 in 10.0 mi SSW 3.5 mph - N/A   Clear
9:03 AM 42.8 °F - 21.2 °F 42% 30.29 in 10.0 mi Calm Calm - N/A   Clear
9:23 AM 46.4 °F - 21.2 °F 37% 30.29 in 10.0 mi Calm Calm - N/A   Clear
9:43 AM 41.0 °F - 26.6 °F 57% 30.29 in 10.0 mi Calm Calm - N/A   Clear
10:03 AM 46.4 °F - 23.0 °F 40% 30.30 in 10.0 mi Calm Calm - N/A   Clear
10:23 AM 46.4 °F - 28.4 °F 50% 30.29 in 10.0 mi Calm Calm - N/A   Clear
10:43 AM 48.2 °F - 28.4 °F 46% 30.28 in 10.0 mi Calm Calm - N/A   Clear
11:03 AM 50.0 °F - 32.0 °F 50% 30.28 in 10.0 mi Calm Calm - N/A   Clear
11:23 AM 51.8 °F - 28.4 °F 41% 30.27 in 10.0 mi Calm Calm - N/A   Clear
11:43 AM 51.8 °F - 26.6 °F 38% 30.27 in 10.0 mi Calm Calm - N/A   Clear
12:03 PM 55.4 °F - 26.6 °F 33% 30.26 in 10.0 mi East 5.8 mph - N/A   Clear
12:23 PM 57.2 °F - 28.4 °F 33% 30.24 in 10.0 mi ESE 8.1 mph - N/A   Clear
12:43 PM 57.2 °F - 26.6 °F 31% 30.24 in 10.0 mi SE 4.6 mph - N/A   Clear
1:03 PM 57.2 °F - 28.4 °F 33% 30.24 in 10.0 mi ESE 5.8 mph - N/A   Clear
1:23 PM 57.2 °F - 26.6 °F 31% 30.24 in 10.0 mi ESE 5.8 mph - N/A   Clear
1:43 PM 57.2 °F - 26.6 °F 31% 30.23 in 10.0 mi ESE 6.9 mph - N/A   Clear
2:03 PM 55.4 °F - 26.6 °F 33% 30.23 in 10.0 mi ESE 8.1 mph - N/A   Clear
2:23 PM 55.4 °F - 26.6 °F 33% 30.22 in 10.0 mi ESE 5.8 mph - N/A   Clear
2:43 PM 55.4 °F - 26.6 °F 33% 30.22 in 10.0 mi ESE 6.9 mph - N/A   Clear
3:03 PM 55.4 °F - 28.4 °F 36% 30.22 in 10.0 mi ESE 8.1 mph - N/A   Clear
3:23 PM 55.4 °F - 28.4 °F 36% 30.22 in 10.0 mi SE 6.9 mph - N/A   Clear
3:43 PM 55.4 °F - 28.4 °F 36% 30.22 in 10.0 mi ESE 8.1 mph - N/A   Clear
4:03 PM 55.4 °F - 28.4 °F 36% 30.22 in 10.0 mi SE 6.9 mph - N/A   Clear
4:23 PM 51.8 °F - 26.6 °F 38% 30.23 in 10.0 mi SSE 9.2 mph - N/A   Scattered Clouds
4:43 PM 51.8 °F - 28.4 °F 41% 30.24 in 10.0 mi SE 3.5 mph - N/A   Mostly Cloudy
5:03 PM 51.8 °F - 28.4 °F 41% 30.24 in 10.0 mi Calm Calm - N/A   Overcast
5:23 PM 51.8 °F - 30.2 °F 44% 30.24 in 10.0 mi SE 3.5 mph - N/A   Overcast
5:43 PM 51.8 °F - 28.4 °F 41% 30.24 in 10.0 mi Calm Calm - N/A   Overcast
6:03 PM 51.8 °F - 28.4 °F 41% 30.25 in 10.0 mi Calm Calm - N/A   Overcast
6:23 PM 50.0 °F - 26.6 °F 40% 30.26 in 10.0 mi Calm Calm - N/A   Overcast
6:43 PM 50.0 °F - 26.6 °F 40% 30.26 in 10.0 mi Calm Calm - N/A   Overcast
7:03 PM 50.0 °F - 26.6 °F 40% 30.26 in 10.0 mi ESE 3.5 mph - N/A   Scattered Clouds
7:23 PM 46.4 °F 45.2 °F 26.6 °F 46% 30.27 in 10.0 mi SE 3.5 mph - N/A   Clear
7:43 PM 46.4 °F 43.5 °F 28.4 °F 50% 30.26 in 10.0 mi SE 5.8 mph - N/A   Clear
8:03 PM 46.4 °F 44.3 °F 26.6 °F 46% 30.26 in 10.0 mi SE 4.6 mph - N/A   Clear
8:23 PM 44.6 °F 42.2 °F 26.6 °F 49% 30.27 in 10.0 mi SE 4.6 mph - N/A   Clear
8:43 PM 44.6 °F 43.1 °F 26.6 °F 49% 30.27 in 10.0 mi SE 3.5 mph - N/A   Mostly Cloudy
9:03 PM 46.4 °F - 26.6 °F 46% 30.26 in 10.0 mi Calm Calm - N/A   Overcast
9:23 PM 44.6 °F - 26.6 °F 49% 30.26 in 10.0 mi Calm Calm - N/A   Overcast
9:43 PM 44.6 °F - 26.6 °F 49% 30.26 in 10.0 mi Calm Calm - N/A   Scattered Clouds
10:03 PM 46.4 °F - 26.6 °F 46% 30.27 in 10.0 mi Calm Calm - N/A   Mostly Cloudy
10:23 PM 44.6 °F - 26.6 °F 49% 30.27 in 10.0 mi Calm Calm - N/A   Scattered Clouds
10:43 PM 44.6 °F - 26.6 °F 49% 30.27 in 10.0 mi Calm Calm - N/A   Clear
11:03 PM 44.6 °F - 26.6 °F 49% 30.27 in 10.0 mi Calm Calm - N/A   Clear
11:23 PM 44.6 °F - 26.6 °F 49% 30.27 in 10.0 mi Calm Calm - N/A   Clear
11:43 PM 42.8 °F - 26.6 °F 53% 30.27 in 10.0 mi Calm Calm - N/A   Mostly Cloudy